Regional Weather Roundup
Issued by NWS

Home | Current Version | Previous Version | Text Only | Print | Product List | Glossary On
Versions: 1 2 3 4 5 6 7 8 9 10 11 12 13 14 15 16 17 18 19 20 21 22 23 24 25 26 27 28 29 30 31 32 33 34 35 36 37 38 39 40 41 42 43 44 45 46 47 48 49 50
000
ASCA44 KEWX 260020
RWRMX

LATIN AMERICA AND CARIBBEAN REGIONAL WEATHER ROUNDUP
NATIONAL WEATHER SERVICE AUSTIN/SAN ANTONIO TX
600 PM CST SAT FEB 25 2017

NOTE: "FAIR" INDICATED FEW OR NO CLOUDS BELOW 12,000 FEET WITH NO
SIGNIFICANT WEATHER AND/OR OBSTRUCTIONS TO VISIBILITY.

BAJA CALIFORNIA

CITY           SKY/WX    TMP DP  RH WIND       PRES   REMARKS
LORETO         SUNNY     73  46  38 NE9       29.92R
LA PAZ         SUNNY     73  45  35 NW8       29.95S
MEXICALI       SUNNY     68  25  19 SE5       29.96F
S.J. DEL CABO  SUNNY     79  50  36 SE7       29.91R
TIJUANA        PTSUNNY   55  41  58 W9        30.07S

NORTHWESTERN MEXICO

CITY           SKY/WX    TMP DP  RH WIND       PRES   REMARKS
CULIACAN       SUNNY     81  57  44 W7        29.82S
DURANGO        SUNNY     79   9   7 SW7       30.00S
GUAYMAS        SUNNY     81  28  15 N12       29.86S
HERMOSILLO     SUNNY     82  23  11 W9        29.94F
CD. JUAREZ     MOSUNNY   66  25  20 W9        29.88F
LOS MOCHIS     SUNNY     73  46  38 NW24      29.88S
OBREGON        SUNNY     75  43  31 W13       29.86S

NORTHEASTERN MEXICO

CITY           SKY/WX    TMP DP  RH WIND       PRES   REMARKS
CHIHUAHUA      SUNNY     73  12   9 E18       29.92F
MATAMOROS      MOCLDY    72  57  60 NE12      30.00S
MONCLOVA       CLEAR     70  36  28 N16       29.96
MONTERREY      CLOUDY    70  46  43 S9        29.99S
NUEVO LAREDO   CLEAR     73  36  25 E12       30.00F
PIEDRAS NEGRAS CLEAR     72  37  28 SE9       30.01F
REYNOSA        PTCLDY    70  50  49 E14       30.00R
SALTILLO       CLEAR     57  41  54 N18       30.08S
TORREON        SUNNY     81  12   7 N6        29.92F
CD. VICTORIA   MOCLDY    79  57  47 E10       29.95S

WESTERN MEXICO

CITY           SKY/WX    TMP DP  RH WIND       PRES   REMARKS
AGUASCALIENTES SUNNY     79  10   7 SW6       30.07S
COLIMA         SUNNY     75  61  60 SW12      29.93R
DEL BAJIO      SUNNY     79  28  15 S9        30.11F
GUADALAJARA    SUNNY     82  25  12 W7        30.00S
MANZANILLO     SUNNY     77  70  78 S9        29.81S
MAZATLAN       SUNNY     77  61  57 W13       29.84S
P. VALLARTA    SUNNY     75  68  78 W8        29.87R
URUAPAN        SUNNY     73  48  40 CALM      30.08R
ZACATECAS      SUNNY     75  18  11 SW9       30.10S

CENTRAL MEXICO

CITY           SKY/WX    TMP DP  RH WIND       PRES   REMARKS
CUERNAVACA     PTCLDY    84  28  13 CALM      29.96S
MEXICO CITY    CLEAR     73  28  19 SE17      30.15R
MORELIA        SUNNY     77  32  19 S12       30.07S
POZA RICA      CLEAR     79  66  65 NE7       29.95S
PUEBLA         CLEAR     70  28  21 S18       30.17R
QUERETARO      CLEAR     79  21  11 W6        30.11S
S. LUIS POTOSI CLEAR     72  28  20 E15       30.06R
TAMPICO        PTCLDY    77  70  78 N18       29.95R
TOLUCA         CLEAR     66  28  24 S14       30.24R

SOUTHERN MEXICO

CITY           SKY/WX    TMP DP  RH WIND       PRES   REMARKS
ACAPULCO       CLEAR     81  70  69 W8        29.83R
B. DE HUATULCO PTCLDY    82  72  69 S7        29.90S
OAXACA         PTCLDY    79  39  24 E14       30.05R
P. ESCONDIDO     N/A    N/A N/A N/A MISG        N/A
VERACRUZ       PTCLDY    77  70  78 NE14      29.92R
ZIHUATANEJO    SUNNY     82  64  54 SW8       29.85S

YUCATAN PENINSULA

CITY           SKY/WX    TMP DP  RH WIND       PRES   REMARKS
CAMPECHE       PTCLDY    79  75  89 NW12G23   29.82R
CANCUN         CLEAR     79  68  69 E7        29.91R
CHETUMAL       CLEAR     81  73  78 SE13      29.85R
CD. DEL CARMEN CLEAR     81  72  74 W12       29.86R
COZUMEL        CLEAR     79  68  69 SE9       29.87R
MERIDA         CLEAR     81  66  61 N9        29.88R
MINATITLAN     CLEAR     79  68  69 N14G32    29.85R
TAPACHULA      CLEAR     84  73  70 W12       29.83R HX  91
TUX. GUTIERREZ PTCLDY    82  57  42 W22       29.85R
VILLAHERMOSA   CLEAR     81  70  69 NW10      29.89R

CENTRAL AMERICA

CITY           SKY/WX    TMP DP  RH WIND       PRES   REMARKS
BELIZE CITY    PTCLDY    81  75  83 E8        29.85R
MANAGUA        PTCLDY    88  68  51 SE7       29.80R HX  91

CARIBBEAN

CITY           SKY/WX    TMP DP  RH WIND       PRES   REMARKS
ARUBA          PTCLDY    81  73  78 E17       29.86S
CURACAO        PTCLDY    81  75  83 E14       29.89S
KINGSTON       PTCLDY    81  72  74 SE9       29.92R
NASSAU         PTCLDY    77  64  65 N5        29.97S
SAN JUAN       PTCLDY    81  70  69 SE5       30.00R
SANTO DOMINGO  PTCLDY    75  70  83 SE5       29.94S
ST. CROIX      CLEAR     75  66  73 NE5       30.01
ST. KITTS      MOCLDY    79  72  78 E8        30.00S
ST. MAARTEN    PTCLDY    79  72  78 E7        30.00S
ST. THOMAS     PTCLDY    77  70  78 E5        30.00

$$





USA.gov is the U.S. government's official web portal to all federal, state and local government web resources and services.